0 HST
1 20580U 90037B 25301.45287957 .00009418 00000-0 33512-3 0 9991
2 20580 28.4671 220.5377 0002110 87.6959 272.3877 15.27189683753066
0 ISS (ZARYA)
1 25544U 98067A 25301.52216109 .00016210 00000-0 29595-3 0 9990
2 25544 51.6346 6.3420 0004740 349.4592 10.6297 15.49553329535849
0 CXO
1 25867U 99040B 25304.30481514 .00000945 00000-0 00000-0 0 9998
2 25867 52.1821 124.1649 8211418 310.5885 0.2547 0.37801472 16457